Вернуться в каталог

THOR ABLESTAR DEB

АктивенLEO
NORAD 150·DEBRIS·🇺🇸 United States

Запущен Jun 29, 1961 с Cape Canaveral Space Force Station

Loading…

Ближайшие Пролёты (ближайшие 24 часа)

TLE

СвежийSource: Space-Track

Эпоха: Sep 8, 2026, 18:01 UTC

1 00150U 61015AL  26251.75074242  .00000401  00000-0  42574-3 0  9996
2 00150  66.2468  56.7931 0064618 213.1481 146.5534 13.83936707120060

Отслеживайте THOR ABLESTAR DEB в реальном времени с AllMySat

Download on the App Store